Tracking 28522 objects as of 28-Feb-2024
HD Live streaming from Space Station
objects crossing your sky now

STARLINK-4750

Track STARLINK-4750 now!
10-day predictions
STARLINK-4750 is classified as:


NORAD ID: 53841
Int'l Code: 2022-114Z
Perigee: 545.8 km
Apogee: 548.0 km
Inclination: 53.2 °
Period: 95.4 minutes
Semi major axis: 6917 km
RCS: Unknown
Launch date: September 19, 2022
Source: United States (US)
Launch site: AIR FORCE EASTERN TEST RANGE (AFETR)
Your satellite tracking list
Your tracking list is empty




NASA's NSSDC Master Catalog

Two Line Element Set (TLE):
1 53841U 22114Z   24059.15116618  .00005367  00000-0  35509-3 0  9996
2 53841  53.2197  18.6556 0001568  86.1893 273.9278 15.08833862 80635
Source of the keplerian elements: AFSPC